Weather History for Rome Ciampino, Italy

Change the Weather History Date:

Monday, February 18, 2013

  Actual Average Record
Temperature  
Mean Temperature 42 °F -  
Max Temperature 50 °F 57 °F 72 °F (2014)
Min Temperature 35 °F 40 °F 24 °F (2008)
Degree Days  
Heating Degree Days 22    
Moisture  
Dew Point 37 °F    
Average Humidity 83    
Maximum Humidity 100    
Minimum Humidity 58    
Precipitation  
Precipitation 0.00 in 0.10 in - ()
Sea Level Pressure  
Sea Level Pressure 29.95 in    
Wind  
Wind Speed 2 mph ()    
Max Wind Speed 8 mph    
Max Gust Speed -    
Visibility 5.3 miles    
Events Rain    
Averages and records for this station are not official NWS values.
T = Trace of Precipitation, MM = Missing Value Source: Averaged Metar Reports

Daily Weather History Graph

Daily Weather History Graph

Search for Another Location

Airport:

Trip Planner

Search our weather history database for the weather conditions in past years. The results will help you decide how hot, cold, wet, or windy it might be!

Date:

Astronomy

Feb. 18, 2013 Rise Set
Actual Time 7:01 AM CET 5:46 PM CET
Civil Twilight 6:32 AM CET 6:15 PM CET
Nautical Twilight 6:00 AM CET 6:47 PM CET
Astronomical Twilight 5:28 AM CET 7:19 PM CET
Moon 11:17 AM CET (2/18) 1:27 AM CET (2/18)
Length of Visible Light 11h 42m
Length of Day
10h 45m
First Quarter, 56% of the Moon is Illuminated
Feb 18
First Quarter
Feb 25
Full
Mar 4
Last Quarter
Mar 11
New
Mar 19
First Quarter

Hourly Weather History & Observations

Time (CET) Temp. Windchill Dew Point Humidity Pressure Visibility Wind Dir Wind Speed Gust Speed Precip Events Conditions
12:15 AM 39.2 °F - 35.6 °F 87% 29.98 in 6.2 mi NNE 1.2 mph - N/A   Partly Cloudy
12:45 AM 39.2 °F - 35.6 °F 87% 29.98 in 6.2 mi NE 1.2 mph - N/A   Partly Cloudy
1:15 AM 37.4 °F - 35.6 °F 93% 29.98 in 6.2 mi NE 1.2 mph - N/A   Partly Cloudy
1:45 AM 37.4 °F - 35.6 °F 93% 29.98 in 6.2 mi NE 2.3 mph - N/A   Partly Cloudy
2:15 AM 35.6 °F 32.8 °F 35.6 °F 100% 29.98 in 6.2 mi NNE 3.5 mph - N/A   Scattered Clouds
2:45 AM 35.6 °F 32.8 °F 35.6 °F 100% 29.95 in 6.2 mi NE 3.5 mph - N/A   Scattered Clouds
3:15 AM 37.4 °F 34.9 °F 35.6 °F 93% 29.95 in 6.2 mi NE 3.5 mph - N/A   Scattered Clouds
3:45 AM 37.4 °F - 35.6 °F 93% 29.95 in 6.2 mi NE 2.3 mph - N/A   Scattered Clouds
4:15 AM 37.4 °F - 35.6 °F 93% 29.92 in 5.0 mi NNE 2.3 mph - N/A   Scattered Clouds
4:45 AM 35.6 °F - 33.8 °F 93% 29.92 in 5.0 mi NE 2.3 mph - N/A   Scattered Clouds
5:15 AM 35.6 °F - 33.8 °F 93% 29.92 in 5.0 mi NNE 2.3 mph - N/A   Scattered Clouds
5:45 AM 35.6 °F - 33.8 °F 93% 29.92 in 5.0 mi NNE 2.3 mph - N/A   Scattered Clouds
6:15 AM 35.6 °F - 33.8 °F 93% 29.92 in 5.0 mi North 1.2 mph - N/A   Scattered Clouds
6:45 AM 35.6 °F - 33.8 °F 93% 29.95 in 5.0 mi NE 1.2 mph - N/A   Scattered Clouds
7:15 AM 35.6 °F - 33.8 °F 93% 29.95 in 5.0 mi NE 2.3 mph - N/A   Scattered Clouds
7:45 AM 35.6 °F - 33.8 °F 93% 29.95 in 5.0 mi NNE 1.2 mph - N/A   Scattered Clouds
8:15 AM 35.6 °F - 33.8 °F 93% 29.95 in 5.0 mi NNE 2.3 mph - N/A   Mostly Cloudy
8:45 AM 35.6 °F 32.8 °F 33.8 °F 93% 29.95 in 5.0 mi NE 3.5 mph - N/A   Mostly Cloudy
9:15 AM 37.4 °F 34.9 °F 35.6 °F 93% 29.95 in 5.0 mi NNE 3.5 mph - N/A   Mostly Cloudy
9:45 AM 37.4 °F 33.8 °F 35.6 °F 93% 29.95 in 5.0 mi NNE 4.6 mph - N/A   Mostly Cloudy
10:15 AM 39.2 °F 35.9 °F 37.4 °F 93% 29.95 in 5.0 mi North 4.6 mph - N/A   Mostly Cloudy
10:45 AM 41.0 °F 39.0 °F 37.4 °F 87% 29.98 in 5.0 mi NNE 3.5 mph - N/A   Mostly Cloudy
11:15 AM 42.8 °F 39.3 °F 39.2 °F 87% 29.98 in 5.0 mi NNE 5.8 mph - N/A   Mostly Cloudy
11:45 AM 46.4 °F 45.2 °F 39.2 °F 76% 29.98 in 5.0 mi NNE 3.5 mph - N/A   Mostly Cloudy
12:15 PM 46.4 °F 45.2 °F 39.2 °F 76% 29.95 in 5.0 mi North 3.5 mph - N/A   Mostly Cloudy
12:45 PM 46.4 °F 45.2 °F 39.2 °F 76% 29.95 in 5.0 mi North 3.5 mph - N/A   Mostly Cloudy
1:15 PM 48.2 °F - 39.2 °F 71% 29.95 in 5.0 mi North 1.2 mph - N/A   Mostly Cloudy
1:45 PM 50.0 °F - 39.2 °F 66% 29.95 in 5.0 mi NNW 3.5 mph - N/A   Scattered Clouds
2:15 PM 50.0 °F - 39.2 °F 66% 29.92 in 5.0 mi North 4.6 mph - N/A   Scattered Clouds
2:45 PM 50.0 °F - 37.4 °F 62% 29.92 in 5.0 mi East 2.3 mph - N/A   Scattered Clouds
3:15 PM 50.0 °F - 37.4 °F 62% 29.92 in 5.0 mi South 1.2 mph - N/A   Scattered Clouds
3:45 PM 50.0 °F - 35.6 °F 58% 29.92 in 5.0 mi WNW 4.6 mph - N/A Rain Light Rain
4:15 PM 48.2 °F - 39.2 °F 71% 29.92 in 5.0 mi West 2.3 mph - N/A Rain Light Rain
4:45 PM 48.2 °F - 41.0 °F 76% 29.92 in 5.0 mi Calm Calm - N/A   Scattered Clouds
5:15 PM 50.0 °F - 39.2 °F 66% 29.92 in 5.0 mi SSW 2.3 mph - N/A   Scattered Clouds
5:45 PM 48.2 °F - 39.2 °F 71% 29.92 in 5.0 mi SW 1.2 mph - N/A   Scattered Clouds
6:15 PM 46.4 °F - 39.2 °F 76% 29.92 in 5.0 mi West 1.2 mph - N/A   Scattered Clouds
6:45 PM 46.4 °F - 41.0 °F 81% 29.95 in 5.0 mi WNW 1.2 mph - N/A   Scattered Clouds
7:15 PM 44.6 °F - 41.0 °F 87% 29.95 in 5.0 mi Calm Calm - N/A   Scattered Clouds
7:45 PM 44.6 °F 40.2 °F 37.4 °F 76% 29.95 in 5.6 mi North 8.1 mph - N/A   Scattered Clouds
8:15 PM 42.8 °F 39.3 °F 35.6 °F 76% 29.95 in 5.6 mi North 5.8 mph - N/A   Partly Cloudy
8:45 PM 41.0 °F 38.0 °F 35.6 °F 81% 29.95 in 5.6 mi NE 4.6 mph - N/A   Scattered Clouds
9:15 PM 41.0 °F 38.0 °F 35.6 °F 81% 29.95 in 6.2 mi NNE 4.6 mph - N/A   Partly Cloudy
9:45 PM 39.2 °F - 33.8 °F 81% 29.95 in 6.2 mi NNE 2.3 mph - N/A   Partly Cloudy
10:15 PM 39.2 °F 37.0 °F 33.8 °F 81% 29.98 in 6.2 mi NNE 3.5 mph - N/A   Partly Cloudy
10:45 PM 39.2 °F - 33.8 °F 81% 29.98 in 6.2 mi NE 2.3 mph - N/A   Partly Cloudy
11:15 PM 39.2 °F 37.0 °F 35.6 °F 87% 29.98 in 4.3 mi NNE 3.5 mph - N/A   Partly Cloudy
11:45 PM 39.2 °F - 35.6 °F 87% 29.98 in 3.7 mi NNE 2.3 mph - N/A   Partly Cloudy